Weather History for PHMK - November, 2012

Change the Weather History Date:

Saturday, November 3, 2012

  Actual Average Record
Temperature  
Mean Temperature 74 °F -  
Max Temperature 84 °F 83 °F 88 °F (1975)
Min Temperature 64 °F 69 °F 63 °F (1973)
Cooling Degree Days 9    
Growing Degree Days 24 (Base 50)    
Moisture  
Dew Point 61 °F    
Average Humidity 64    
Maximum Humidity 84    
Minimum Humidity 43    
Precipitation  
Precipitation 0.00 in - - ()
Sea Level Pressure  
Sea Level Pressure 29.99 in    
Wind  
Wind Speed 5 mph (East)    
Max Wind Speed 13 mph    
Max Gust Speed 18 mph    
Visibility 10 miles    
Events      
Averages and records for this station are not official NWS values.
T = Trace of Precipitation, MM = Missing Value Source: NWS Daily Summary

Daily Weather History Graph

Daily Weather History Graph

Search for Another Location

Airport or City:

Trip Planner

Search our weather history database for the weather conditions in past years. The results will help you decide how hot, cold, wet, or windy it might be!

Date:

Astronomy

Nov. 03, 2012 Rise Set
Actual Time 6:32 AM HST 5:51 PM HST
Civil Twilight 6:09 AM HST 6:14 PM HST
Nautical Twilight 5:43 AM HST 6:40 PM HST
Astronomical Twilight 5:16 AM HST 7:06 PM HST
Moon 9:52 PM HST (11/3) 10:32 AM HST (11/3)
Length of Visible Light 12h 04m
Length of Day
11h 18m
Waning Gibbous, 78% of the Moon is Illuminated
Nov 3
Waning Gibbous
Nov 6
Last Quarter
Nov 13
New
Nov 20
First Quarter
Nov 28
Full

Hourly Weather History & Observations

Time (HST) Temp. Heat Index Dew Point Humidity Pressure Visibility Wind Dir Wind Speed Gust Speed Precip Events Conditions
12:54 AM 70.0 °F - 63.0 °F 78% 29.99 in 10.0 mi East 3.5 mph - N/A   Partly Cloudy
1:54 AM 71.1 °F - 63.0 °F 75% 29.98 in 10.0 mi East 3.5 mph - N/A   Partly Cloudy
2:54 AM 69.1 °F - 62.1 °F 78% 29.97 in 10.0 mi ENE 3.5 mph - N/A   Partly Cloudy
3:54 AM 68.0 °F - 61.0 °F 78% 29.97 in 10.0 mi East 4.6 mph - N/A   Clear
4:54 AM 69.1 °F - 62.1 °F 78% 29.97 in 10.0 mi East 5.8 mph - N/A   Partly Cloudy
5:54 AM 68.0 °F - 62.1 °F 81% 29.98 in 10.0 mi ENE 4.6 mph - N/A   Clear
6:54 AM 64.9 °F - 60.1 °F 84% 30.00 in 9.0 mi Calm Calm - N/A   Clear
7:54 AM 75.0 °F - 63.0 °F 66% 30.00 in 10.0 mi SE 5.8 mph - N/A   Clear
8:54 AM 77.0 °F - 64.0 °F 64% 30.01 in 6.0 mi SE 5.8 mph - N/A   Haze
9:54 AM 79.0 °F - 64.0 °F 60% 30.03 in 10.0 mi SSE 6.9 mph - N/A   Haze
10:54 AM 81.0 °F 81.6 °F 60.1 °F 49% 30.02 in 10.0 mi SE 8.1 mph - N/A   Partly Cloudy
11:54 AM 84.0 °F 84.0 °F 60.1 °F 44% 29.99 in 10.0 mi SSE 12.7 mph 18.4 mph N/A   Partly Cloudy
12:54 PM 84.0 °F 83.8 °F 59.0 °F 43% 29.98 in 10.0 mi South 9.2 mph 17.3 mph N/A   Partly Cloudy
1:54 PM 84.0 °F 84.0 °F 60.1 °F 44% 29.96 in 10.0 mi SSE 11.5 mph - N/A   Partly Cloudy
2:54 PM 82.9 °F 84.0 °F 63.0 °F 51% 29.95 in 10.0 mi NE 9.2 mph 17.3 mph N/A   Mostly Cloudy
3:54 PM 81.0 °F 82.2 °F 63.0 °F 54% 29.95 in 10.0 mi North 11.5 mph 17.3 mph N/A   Scattered Clouds
4:54 PM 80.1 °F 81.1 °F 61.0 °F 52% 29.96 in 10.0 mi NNE 6.9 mph - N/A   Scattered Clouds
5:54 PM 77.0 °F - 60.1 °F 56% 29.98 in 10.0 mi NE 4.6 mph - N/A   Partly Cloudy
6:54 PM 75.9 °F - 62.1 °F 62% 30.00 in 10.0 mi NE 6.9 mph - N/A   Clear
7:54 PM 73.9 °F - 62.1 °F 66% 30.02 in 10.0 mi Calm Calm - N/A   Clear
8:54 PM 73.0 °F - 61.0 °F 66% 30.03 in 10.0 mi NNE 4.6 mph - N/A   Clear
9:54 PM 72.0 °F - 61.0 °F 68% 30.02 in 10.0 mi Calm Calm - N/A   Clear
10:54 PM 69.1 °F - 59.0 °F 70% 30.02 in 10.0 mi Calm Calm - N/A   Clear
11:54 PM 66.0 °F - 57.9 °F 75% 30.01 in 10.0 mi Calm Calm - N/A   Clear